TIE541 LKMT-LKPR

Flight info

Callsign TIE541
Flight time 0h 37m
Altitude 28000
Route BAXEV DCT VLM
Aircraft CL60/M-SBDE1E2E3FGHIJ1J4J5J7M3RWXYZ/LB1V1D1

Departure

Time 2026-05-06 17:44
Airport Leoš Janáček Airport Ostrava (LKMT)

Arrival

Time 2026-05-06 18:22
Airport Václav Havel Airport Prague (LKPR)
Time Latitude Longitude Altitude Speed Heading
2026-05-06 17:26 49.69461 18.11808 838 ft 0 kts 136°
2026-05-06 17:38 49.69488 18.11820 838 ft 9 kts 351°
2026-05-06 17:38 49.69543 18.11809 837 ft 4 kts 20°
2026-05-06 17:38 49.69572 18.11853 837 ft 8 kts 48°
2026-05-06 17:39 49.69624 18.11940 836 ft 13 kts 46°
2026-05-06 17:39 49.69683 18.11960 836 ft 5 kts 322°
2026-05-06 17:39 49.69732 18.11962 836 ft 10 kts 37°
2026-05-06 17:39 49.69793 18.12059 835 ft 14 kts 46°
2026-05-06 17:40 49.69872 18.12186 833 ft 10 kts 47°
2026-05-06 17:40 49.69935 18.12289 832 ft 15 kts 46°
2026-05-06 17:40 49.70004 18.12401 831 ft 15 kts 47°
2026-05-06 17:40 49.70076 18.12448 830 ft 13 kts 322°
2026-05-06 17:41 49.70153 18.12336 830 ft 17 kts 317°
2026-05-06 17:41 49.70247 18.12195 829 ft 16 kts 314°
2026-05-06 17:41 49.70260 18.12112 829 ft 8 kts 224°
2026-05-06 17:41 49.70252 18.12100 829 ft 0 kts 224°
2026-05-06 17:43 49.70248 18.12094 830 ft 8 kts 224°
2026-05-06 17:43 49.69997 18.11689 834 ft 101 kts 225°
2026-05-06 17:44 49.69311 18.10578 942 ft 175 kts 224°
2026-05-06 17:44 49.68479 18.09204 1934 ft 183 kts 225°
2026-05-06 17:44 49.67645 18.07838 3105 ft 177 kts 221°
2026-05-06 17:44 49.66833 18.06521 4219 ft 175 kts 221°
2026-05-06 17:45 49.66033 18.05227 5326 ft 174 kts 221°
2026-05-06 17:45 49.65224 18.03916 6461 ft 174 kts 223°
2026-05-06 17:45 49.64597 18.02364 7566 ft 182 kts 244°
2026-05-06 17:45 49.64437 18.00434 8662 ft 194 kts 265°
2026-05-06 17:46 49.64511 17.98398 9775 ft 198 kts 267°
2026-05-06 17:46 49.64584 17.96110 10247 ft 235 kts 268°
2026-05-06 17:46 49.64671 17.93425 11064 ft 263 kts 269°
2026-05-06 17:46 49.64769 17.90552 12095 ft 280 kts 269°
2026-05-06 17:47 49.64872 17.87572 13348 ft 287 kts 269°
2026-05-06 17:47 49.64977 17.84548 14681 ft 290 kts 269°
2026-05-06 17:47 49.65083 17.81457 15802 ft 298 kts 269°
2026-05-06 17:47 49.65191 17.78169 16466 ft 309 kts 269°
2026-05-06 17:48 49.65300 17.74874 16719 ft 311 kts 269°
2026-05-06 17:48 49.65409 17.71457 17304 ft 328 kts 269°
2026-05-06 17:48 49.65521 17.67989 18605 ft 326 kts 269°
2026-05-06 17:48 49.65630 17.64575 19912 ft 321 kts 269°
2026-05-06 17:49 49.65735 17.61196 21022 ft 321 kts 269°
2026-05-06 17:49 49.65839 17.57756 22030 ft 324 kts 269°
2026-05-06 17:49 49.65942 17.54285 22969 ft 328 kts 269°
2026-05-06 17:49 49.66045 17.50779 23833 ft 334 kts 269°
2026-05-06 17:50 49.66147 17.47218 24727 ft 337 kts 269°
2026-05-06 17:50 49.66251 17.43585 25574 ft 341 kts 269°
2026-05-06 17:50 49.66353 17.39935 26370 ft 345 kts 269°
2026-05-06 17:50 49.66456 17.36233 27089 ft 350 kts 269°
2026-05-06 17:51 49.66560 17.32404 27610 ft 359 kts 269°
2026-05-06 17:51 49.66663 17.28541 27752 ft 363 kts 269°
2026-05-06 17:51 49.66768 17.24626 27752 ft 369 kts 269°
2026-05-06 17:51 49.66872 17.20601 27756 ft 388 kts 269°
2026-05-06 17:52 49.66981 17.16324 27754 ft 407 kts 269°
2026-05-06 17:52 49.67094 17.11894 27749 ft 422 kts 269°
2026-05-06 17:52 49.67209 17.07350 27744 ft 431 kts 269°
2026-05-06 17:52 49.67328 17.02684 27746 ft 432 kts 269°
2026-05-06 17:53 49.67444 16.98090 27744 ft 429 kts 269°
2026-05-06 17:53 49.67556 16.93496 27757 ft 427 kts 269°
2026-05-06 17:53 49.67666 16.88934 27748 ft 426 kts 269°
2026-05-06 17:53 49.67772 16.84401 27752 ft 426 kts 269°
2026-05-06 17:54 49.67876 16.79869 27751 ft 426 kts 269°
2026-05-06 17:54 49.67980 16.75284 27753 ft 426 kts 269°
2026-05-06 17:54 49.68080 16.70748 27751 ft 426 kts 269°
2026-05-06 17:54 49.68180 16.66151 27746 ft 426 kts 269°
2026-05-06 17:55 49.68277 16.61614 27738 ft 426 kts 269°
2026-05-06 17:55 49.68371 16.57078 27734 ft 425 kts 269°
2026-05-06 17:55 49.68465 16.52499 27742 ft 425 kts 269°
2026-05-06 17:55 49.68556 16.47971 27732 ft 425 kts 269°
2026-05-06 17:56 49.68646 16.43387 27738 ft 425 kts 269°
2026-05-06 17:56 49.68734 16.38839 27744 ft 425 kts 269°
2026-05-06 17:56 49.68823 16.34322 27740 ft 425 kts 268°
2026-05-06 17:56 49.68914 16.29677 27737 ft 425 kts 268°
2026-05-06 17:57 49.69004 16.24987 27733 ft 425 kts 268°
2026-05-06 17:57 49.69089 16.20384 27731 ft 424 kts 268°
2026-05-06 17:57 49.69171 16.15812 27738 ft 424 kts 268°
2026-05-06 17:57 49.69248 16.11327 27744 ft 424 kts 268°
2026-05-06 17:58 49.69324 16.06757 27737 ft 424 kts 268°
2026-05-06 17:58 49.69398 16.02247 27597 ft 426 kts 268°
2026-05-06 17:58 49.69467 15.97657 27066 ft 428 kts 267°
2026-05-06 17:58 49.69534 15.93108 26457 ft 421 kts 268°
2026-05-06 17:59 49.69599 15.88645 25835 ft 415 kts 267°
2026-05-06 17:59 49.69661 15.84239 25200 ft 411 kts 267°
2026-05-06 17:59 49.69720 15.79869 24568 ft 407 kts 267°
2026-05-06 17:59 49.69778 15.75500 23944 ft 404 kts 267°
2026-05-06 18:00 49.69833 15.71188 23320 ft 402 kts 267°
2026-05-06 18:00 49.69885 15.66950 22702 ft 400 kts 267°
2026-05-06 18:00 49.69938 15.62654 22081 ft 397 kts 267°
2026-05-06 18:00 49.69987 15.58460 21479 ft 393 kts 268°
2026-05-06 18:01 49.70034 15.54274 20865 ft 390 kts 268°
2026-05-06 18:01 49.70080 15.50131 20283 ft 387 kts 268°
2026-05-06 18:01 49.70124 15.45996 19683 ft 384 kts 268°
2026-05-06 18:01 49.70167 15.41877 19095 ft 381 kts 268°
2026-05-06 18:02 49.70207 15.37803 18511 ft 379 kts 268°
2026-05-06 18:02 49.70246 15.33776 17929 ft 375 kts 268°
2026-05-06 18:02 49.70283 15.29750 17341 ft 373 kts 268°
2026-05-06 18:02 49.70318 15.25777 16764 ft 370 kts 268°
2026-05-06 18:03 49.70351 15.21855 16206 ft 368 kts 268°
2026-05-06 18:03 49.70383 15.17940 15638 ft 366 kts 268°
2026-05-06 18:03 49.70414 15.14033 15074 ft 364 kts 268°
2026-05-06 18:03 49.70472 15.10176 14511 ft 363 kts 272°
2026-05-06 18:04 49.71061 15.06378 13935 ft 366 kts 291°
2026-05-06 18:04 49.72520 15.03196 13334 ft 371 kts 311°
2026-05-06 18:04 49.74414 15.00500 12858 ft 369 kts 315°
2026-05-06 18:04 49.76330 14.97861 12724 ft 369 kts 315°
2026-05-06 18:05 49.78225 14.95245 12729 ft 370 kts 315°
2026-05-06 18:05 49.80162 14.92543 12735 ft 371 kts 315°
2026-05-06 18:05 49.82066 14.89892 12725 ft 372 kts 315°
2026-05-06 18:05 49.83996 14.87213 12730 ft 372 kts 315°
2026-05-06 18:06 49.85901 14.84555 12730 ft 372 kts 315°
2026-05-06 18:06 49.87694 14.81668 12737 ft 370 kts 309°
2026-05-06 18:06 49.89399 14.78681 12735 ft 369 kts 309°
2026-05-06 18:06 49.91094 14.75720 12733 ft 369 kts 309°
2026-05-06 18:07 49.92805 14.72732 12763 ft 370 kts 309°
2026-05-06 18:07 49.94515 14.69752 12742 ft 369 kts 309°
2026-05-06 18:07 49.96218 14.66782 12758 ft 369 kts 309°
2026-05-06 18:07 49.97924 14.63800 12754 ft 369 kts 309°
2026-05-06 18:08 49.99616 14.60839 12750 ft 369 kts 309°
2026-05-06 18:08 50.01331 14.57835 12744 ft 369 kts 309°
2026-05-06 18:08 50.03020 14.54870 12747 ft 369 kts 309°
2026-05-06 18:08 50.04686 14.51947 12753 ft 348 kts 309°
2026-05-06 18:09 50.06229 14.49236 12755 ft 324 kts 309°
2026-05-06 18:09 50.07679 14.46683 12762 ft 303 kts 309°
2026-05-06 18:09 50.09030 14.44300 12762 ft 286 kts 309°
2026-05-06 18:09 50.10309 14.42039 12590 ft 277 kts 309°
2026-05-06 18:10 50.11586 14.39773 12342 ft 271 kts 309°
2026-05-06 18:10 50.12826 14.37568 12093 ft 266 kts 308°
2026-05-06 18:10 50.14030 14.35432 11849 ft 261 kts 309°
2026-05-06 18:10 50.15228 14.33302 11600 ft 258 kts 308°
2026-05-06 18:11 50.16405 14.31209 11351 ft 260 kts 308°
2026-05-06 18:11 50.17595 14.29079 11099 ft 260 kts 308°
2026-05-06 18:11 50.18789 14.26944 10847 ft 259 kts 308°
2026-05-06 18:11 50.19962 14.24840 10600 ft 259 kts 308°
2026-05-06 18:12 50.21158 14.22702 10201 ft 262 kts 308°
2026-05-06 18:12 50.22338 14.20575 9817 ft 263 kts 308°
2026-05-06 18:12 50.23533 14.18418 9408 ft 264 kts 308°
2026-05-06 18:12 50.24725 14.16237 9002 ft 264 kts 308°
2026-05-06 18:13 50.25906 14.14048 8765 ft 256 kts 308°
2026-05-06 18:13 50.27020 14.11972 8756 ft 242 kts 308°
2026-05-06 18:13 50.28079 14.10020 8742 ft 229 kts 308°
2026-05-06 18:13 50.29105 14.08133 8745 ft 229 kts 308°
2026-05-06 18:14 50.30127 14.06252 8737 ft 230 kts 308°
2026-05-06 18:14 50.31164 14.04343 8741 ft 230 kts 308°
2026-05-06 18:14 50.32209 14.02407 8554 ft 236 kts 308°
2026-05-06 18:14 50.33110 14.00261 8106 ft 238 kts 286°
2026-05-06 18:15 50.33176 13.97703 7565 ft 242 kts 253°
2026-05-06 18:15 50.32279 13.95490 6971 ft 249 kts 219°
2026-05-06 18:15 50.30698 13.94401 6376 ft 255 kts 186°
2026-05-06 18:15 50.28945 13.94814 5791 ft 260 kts 158°
2026-05-06 18:16 50.27313 13.95906 5495 ft 254 kts 155°
2026-05-06 18:16 50.25734 13.97018 5336 ft 243 kts 155°
2026-05-06 18:16 50.24232 13.98081 5203 ft 232 kts 154°
2026-05-06 18:16 50.22977 13.99511 5044 ft 221 kts 130°
2026-05-06 18:17 50.22004 14.01376 4749 ft 215 kts 128°
2026-05-06 18:17 50.21100 14.03151 4476 ft 204 kts 126°
2026-05-06 18:17 50.20258 14.04869 4206 ft 194 kts 126°
2026-05-06 18:17 50.19465 14.06512 3949 ft 185 kts 125°
2026-05-06 18:18 50.18706 14.08089 3711 ft 177 kts 124°
2026-05-06 18:18 50.17996 14.09566 3467 ft 166 kts 124°
2026-05-06 18:18 50.17337 14.10931 3267 ft 147 kts 123°
2026-05-06 18:18 50.16761 14.12125 3135 ft 136 kts 123°
2026-05-06 18:19 50.16188 14.13326 2895 ft 134 kts 123°
2026-05-06 18:19 50.15646 14.14457 2760 ft 132 kts 123°
2026-05-06 18:19 50.15089 14.15618 2558 ft 130 kts 123°
2026-05-06 18:19 50.14556 14.16726 2437 ft 131 kts 123°
2026-05-06 18:20 50.14005 14.17872 2225 ft 129 kts 124°
2026-05-06 18:20 50.13471 14.18997 2065 ft 130 kts 122°
2026-05-06 18:20 50.12950 14.20129 1874 ft 129 kts 125°
2026-05-06 18:20 50.12391 14.21235 1750 ft 127 kts 126°
2026-05-06 18:21 50.11853 14.22352 1571 ft 128 kts 124°
2026-05-06 18:21 50.11324 14.23455 1405 ft 127 kts 124°
2026-05-06 18:21 50.10790 14.24564 1231 ft 126 kts 125°
2026-05-06 18:21 50.10288 14.25607 1172 ft 107 kts 126°
2026-05-06 18:22 50.09929 14.26345 1173 ft 37 kts 125°
2026-05-06 18:22 50.09871 14.26590 1179 ft 15 kts 78°
2026-05-06 18:22 50.09883 14.26732 1181 ft 10 kts 83°
2026-05-06 18:22 50.09895 14.26854 1183 ft 12 kts 82°
2026-05-06 18:23 50.09907 14.26998 1185 ft 11 kts 82°
2026-05-06 18:23 50.09909 14.27020 1185 ft 0 kts 81°
2026-05-06 18:24 50.09911 14.27034 1186 ft 2 kts 79°
2026-05-06 18:24 50.09927 14.27184 1188 ft 20 kts 82°
2026-05-06 18:25 50.09947 14.27417 1188 ft 23 kts 82°
2026-05-06 18:25 50.09969 14.27651 1188 ft 21 kts 82°
2026-05-06 18:25 50.09991 14.27893 1188 ft 23 kts 83°
2026-05-06 18:25 50.10004 14.28096 1187 ft 15 kts 101°
2026-05-06 18:26 50.09954 14.28260 1187 ft 18 kts 118°
2026-05-06 18:26 50.09887 14.28429 1188 ft 16 kts 149°
2026-05-06 18:26 50.09764 14.28468 1188 ft 19 kts 171°
2026-05-06 18:26 50.09727 14.28540 1187 ft 12 kts 76°
2026-05-06 18:27 50.09751 14.28594 1188 ft 4 kts 341°
2026-05-06 18:27 50.09771 14.28624 1187 ft 4 kts 26°
2026-05-06 18:27 50.09779 14.28622 1187 ft 0 kts 348°